カタログに戻る

STARLINK-34100

運用中通信VLEO
NORAD 64385·PAYLOAD·🇺🇸 United States

打ち上げ Jun 13, 2025 から Cape Canaveral Space Force Station

Loading…

次のパス (今後24時間)

TLE

最新Source: CelesTrak SupGP

元期: Sep 15, 2026, 02:21 UTC

1 64385C 25127R   26258.09840278 -.00034263  00000+0 -12412-2 0  2583
2 64385  42.9998 190.3841 0001025 267.4612  12.0645 15.27589689    10

AllMySatでSTARLINK-34100をリアルタイム追跡

Download on the App Store